Molokai, HI

10:47 AM HST on May 25, 2017 (GMT -1000)
Molokai

Weather History for PHMK - October, 2012

Change the Weather History Date:

Friday, October 19, 2012

  Actual Average Record
Temperature  
Mean Temperature 78 °F -  
Max Temperature 84 °F 84 °F 89 °F (1984)
Min Temperature 73 °F 69 °F 62 °F (1959)
Cooling Degree Days 14    
Growing Degree Days 28 (Base 50)    
Moisture  
Dew Point 62 °F    
Average Humidity 57    
Maximum Humidity 75    
Minimum Humidity 44    
Precipitation  
Precipitation 0.00 in - - ()
Sea Level Pressure  
Sea Level Pressure 30.00 in    
Wind  
Wind Speed 10 mph (NE)    
Max Wind Speed 22 mph    
Max Gust Speed 30 mph    
Visibility 10 miles    
Events Rain    
Averages and records for this station are not official NWS values.
T = Trace of Precipitation, MM = Missing Value Source: NWS Daily Summary

Daily Weather History Graph

Daily Weather History Graph

Search for Another Location

Airport or City:

Trip Planner

Search our weather history database for the weather conditions in past years. The results will help you decide how hot, cold, wet, or windy it might be!

Date:

Astronomy

Oct. 19, 2012 Rise Set
Actual Time 6:25 AM HST 6:00 PM HST
Civil Twilight 6:03 AM HST 6:22 PM HST
Nautical Twilight 5:37 AM HST 6:48 PM HST
Astronomical Twilight 5:11 AM HST 7:14 PM HST
Moon 10:55 AM HST (10/19) 10:14 PM HST (10/19)
Length of Visible Light 12h 19m
Length of Day
11h 34m
Waxing Crescent, 26% of the Moon is Illuminated
Oct 19
Waxing Crescent
Oct 21
First Quarter
Oct 29
Full
Nov 6
Last Quarter
Nov 13
New

Hourly Weather History & Observations

Time (HST) Temp. Heat Index Dew Point Humidity Pressure Visibility Wind Dir Wind Speed Gust Speed Precip Events Conditions
12:54 AM - - - N/A% 30.03 in 10.0 mi Calm Calm - N/A   Clear
1:54 AM - - - N/A% 30.02 in 10.0 mi Calm Calm - N/A   Clear
2:54 AM - - - N/A% 30.01 in 10.0 mi Calm Calm - N/A   Clear
3:54 AM - - - N/A% 30.00 in 10.0 mi NE 9.2 mph - N/A   Overcast
4:54 AM - - - N/A% 30.01 in 10.0 mi NE 9.2 mph 18.4 mph N/A   Partly Cloudy
5:54 AM 73.4 °F - 64.9 °F 75% 30.02 in 10.0 mi NE 13.8 mph 21.9 mph N/A   Clear
6:54 AM 73.4 °F - 64.9 °F 75% 30.03 in 10.0 mi NE 10.4 mph 18.4 mph N/A   Scattered Clouds
7:54 AM - - - N/A% 30.03 in 10.0 mi NE 13.8 mph 23.0 mph N/A   Clear
8:54 AM 78.8 °F - 63.0 °F 58% 30.04 in 10.0 mi NE 21.9 mph 28.8 mph N/A   Partly Cloudy
9:54 AM - - - N/A% 30.05 in 10.0 mi NE 19.6 mph 26.5 mph N/A   Clear
9:58 AM 80.6 °F 81.8 °F 62.6 °F 54% 30.05 in 10.0 mi NE 19.6 mph 29.9 mph N/A   Clear
10:54 AM 80.6 °F 81.7 °F 62.1 °F 53% 30.03 in 10.0 mi NE 19.6 mph 28.8 mph N/A   Partly Cloudy
11:54 AM 82.4 °F 82.7 °F 60.1 °F 47% 30.00 in 10.0 mi NE 16.1 mph 26.5 mph N/A   Partly Cloudy
12:54 PM 84.2 °F 84.2 °F 60.1 °F 44% 29.98 in 10.0 mi NNE 17.3 mph 27.6 mph N/A   Partly Cloudy
1:54 PM 84.2 °F 84.2 °F 60.1 °F 44% 29.95 in 10.0 mi NNE 16.1 mph 25.3 mph N/A   Partly Cloudy
2:54 PM 82.4 °F 82.7 °F 60.1 °F 47% 29.95 in 10.0 mi NNE 18.4 mph 28.8 mph N/A   Clear
3:54 PM 82.4 °F 83.5 °F 63.0 °F 52% 29.95 in 10.0 mi NNE 18.4 mph 27.6 mph N/A   Partly Cloudy
4:54 PM 80.6 °F 82.2 °F 64.0 °F 57% 29.96 in 10.0 mi NNE 13.8 mph 28.8 mph N/A   Clear
5:54 PM 75.2 °F - 63.0 °F 66% 29.98 in 10.0 mi NE 15.0 mph 20.7 mph N/A   Partly Cloudy
6:54 PM 75.2 °F - 63.0 °F 66% 29.99 in 10.0 mi NE 13.8 mph 19.6 mph N/A   Clear
7:54 PM 75.2 °F - 63.0 °F 66% 29.99 in 10.0 mi NE 10.4 mph - N/A   Clear
8:54 PM - - - N/A% 30.01 in 10.0 mi NE 8.1 mph - N/A   Clear
9:54 PM - - - N/A% 30.00 in 10.0 mi NE 10.4 mph 17.3 mph N/A   Clear
10:54 PM - - - N/A% 30.00 in 10.0 mi NE 16.1 mph 24.2 mph N/A   Clear
11:54 PM - - - N/A% 29.99 in 10.0 mi NE 11.5 mph 19.6 mph 0.00 in Rain Light Rain